329  
ASUS43 KDTX 132110  
RWRMI  
MICHIGAN HOURLY REGIONAL WEATHER ROUNDUP  
NATIONAL WEATHER SERVICE DETROIT/PONTIAC MI  
400 PM EST SAT FEB 13 2016  
 
NOTE: "FAIR" INDICATES FEW OR NO CLOUDS BELOW 12,000 FEET WITH NO  
SIGNIFICANT WEATHER AND/OR TO VISIBILITY
.  
 
MIZ047>049-052>055-059>063-066>070-074>076-081>083-132200-  
SOUTHEAST LOWER MICHIGAN  
 
CITY SKY/WX TMP DP RH WIND PRES REMARKS
 
ADRIAN CLOUDY 15 4 61 N9 30.43S WCI 3  
ALMA CLOUDY 16 1 52 NW13G18 30.42R WCI 2  
ANN ARBOR CLOUDY 14 0 53 NW12G18 30.41S WCI 0  
BAD AXE SUNNY 7 -7 54 W6 30.42S WCI -3  
CARO SUNNY 9 -4 56 W3 30.43S  
DETROIT CITY PTSUNNY 15 -6 39 NW12 30.43R WCI 2  
DETROIT LGT SNOW 15 6 67 NW10 30.44R WCI 2  
FLINT MOSUNNY 13 -2 51 W7 30.42S WCI 3  
GROSSE ILE CLOUDY 16 5 62 NW7 30.43R HAZE WCI 6  
HILLSDALE LGT SNOW 14 4 66 W12 30.39S WCI 0  
HOWELL CLOUDY 14 3 62 W12 30.40S WCI 0  
 
CITY SKY/WX TMP DP RH WIND PRES REMARKS
 
JACKSON CLOUDY 15 -1 49 NW14 30.40S WCI 0  
LAMBERTVILLE CLOUDY 17 4 57 W12 30.44S WCI 4  
LANSING CLOUDY 14 0 53 NW15 30.42S WCI -1  
LAPEER FAIR 10 -2 58 NW7 30.41S WCI -2  
MASON PTSUNNY 13 3 65 NW10 30.41S WCI 0  
MONROE CLOUDY 16 2 55 W12 30.43S WCI 2  
MT. CLEMENS MOSUNNY 12 -4 50 NW9 30.42R WCI -1  
PONTIAC PTSUNNY 13 -3 49 NW14 30.38S WCI -2  
PORT HOPE N/A 9 -3 58 NW15G22 30.41R WCI -8  
PORT HURON SUNNY 10 -4 52 W9 30.43S WCI -2  
TRI CITIES CLOUDY 12 -2 53 CALM 30.44R  
MIDLAND CLOUDY 12 -2 52 NW5 30.43R WCI 4  
TROY PTSUNNY 17 -5 37 W16 30.44S WCI 1  
SAGINAW HB SUNNY 12 1 62 NW6 30.44R WCI 3  

 
MIZ043>046-050>051-056>058-064>065-071>073-077>080-132200-  
SOUTHWEST LOWER MICHIGAN  
 
CITY SKY/WX TMP DP RH WIND PRES REMARKS
 
BATTLE CREEK LGT SNOW 14 5 67 NW13 30.43S WCI 0  
BENTON HARBOR CLOUDY 15 3 59 NW9G16 30.51R WCI 3  
BIG RAPIDS FLURRIES 13 4 66 NW10 30.40R WCI 0  
COLDWATER PTSUNNY 15 7 71 W13 30.43S WCI 1  
FREMONT CLOUDY 12 -1 56 NW9 30.45R WCI 0  
HOLLAND FLURRIES 15 4 61 NW14 30.48R WCI 0  
GRAND RAPIDS PTSUNNY 15 1 53 NW15 30.44S WCI 0  
IONIA CLOUDY 15 -1 48 W15G22 30.42R WCI 0  
KALAMAZOO LGT SNOW 14 6 70 NW14 30.45R WCI -1  
LUDINGTON CLOUDY 13 2 61 NW10 30.47S WCI 0  
MARSHALL CLOUDY 16 2 55 W10G21 30.41S WCI 3  
MOUNT PLEASANT CLOUDY 14 4 63 CALM 30.41S  
MUSKEGON LGT SNOW 14 4 64 NW10 30.48R WCI 1  
SOUTH HAVEN CLOUDY 15 4 61 NW13G18 30.49S WCI 1  

 
MIZ016>042-132200-  
NORTHERN LOWER MICHIGAN  
 
CITY SKY/WX TMP DP RH WIND PRES REMARKS
 
ALPENA PTSUNNY 7 -10 46 W12G20 30.41S WCI -8  
BEAVER ISLAND CLOUDY 11 2 66 NW7 30.40S WCI 1  
BELLAIRE CLOUDY 10 2 69 S3 30.43S HAZE  
CADILLAC LGT SNOW 10 3 71 W10 30.35R WCI -3  
CHARLEVOIX CLOUDY 9 3 78 E3 30.44S  
FRANKFORT CLOUDY 13 2 62 NW10 30.45S WCI 0  
GAYLORD MOSUNNY 8 -6 52 W9 30.34R WCI -5  
GRAYLING CLOUDY 9 -7 47 W10 30.36F WCI -5  
HARBOR SPRINGS MOSUNNY 10 -1 60 W6 30.41R WCI 0  
HOUGHTON LAKE CLOUDY 10 -6 48 N12G21 30.37S WCI -5  
MANISTEE CLOUDY 12 0 57 NW7 30.45S WCI 2  
OSCODA PTSUNNY 9 -10 42 NW15G22 30.41S WCI -8  
PELLSTON MOSUNNY 7 -4 60 NW12 30.41R WCI -8  
ROGERS CITY SUNNY 6 -9 51 NW6 30.41S WCI -5  
TRAVERSE CITY SNOW 11 6 81 CALM 30.42R VSB 1/2  

 
MIZ007>008-015-132200-  
EASTERN UPPER MICHIGAN  
 
CITY SKY/WX TMP DP RH WIND PRES REMARKS
 
KINROSS CLOUDY 7 -4 61 NW3 30.38S  
MACKINAC ISLAN CLOUDY 8 -4 59 W7 30.39S WCI -4  
NEWBERRY LGT SNOW 7 3 82 CALM 30.37S VSB 1  
S. S. MARIE LGT SNOW 2 -6 69 W6 30.39R VSB 1 WCI -9  
MUNISING N/A 11 0 61 NW17 30.42S WCI -6  

 
MIZ004>006-011>014-085-132200-  
CENTRAL UPPER MICHIGAN  
 
CITY SKY/WX TMP DP RH WIND PRES REMARKS
 
MANISTIQUE CLOUDY 11 4 74 NW15 30.41R HAZE WCI -6  
ESCANABA SUNNY 12 -8 40 NW7 30.44S WCI 2  
MENOMINEE SUNNY 12 -6 44 N9 30.46S WCI 0  
SAWYER-GWINN MOSUNNY 7 -4 61 NW12G21 30.38F WCI -9  

 
MIZ001>003-009>011-084-132200-  
WESTERN UPPER MICHIGAN  
 
CITY SKY/WX TMP DP RH WIND PRES REMARKS
 
IRON MOUNTAIN SUNNY 11 -6 46 NW10 30.39F WCI -3  
HOUGHTON LGT SNOW 6 -2 69 NW12 30.40F WCI -9  
COPPER HARBOR N/A 8 1 73 N13G20 30.43F WCI -8  
IRONWOOD SUNNY 5 -6 61 W9 30.41F WCI -9  

 
 
ABBREVIATIONS USED IN REMARKS  
TC - TEMPERATURE IN CELSIUS  
WCI - WIND CHILL INDEX  
HX - HEAT INDEX  
VSB - VISIBILITY  
 
 
 
CLICK HERE TO GO TO PREVIOUS BULLETINS.

The Nexlab MI Page Main Text Page